WESTFORD NEEDLES, 2367

Orbit data source: Space-Track

WESTFORD NEEDLES, 2367 is space debris originally from a launch on Thu, 09 May 1963 UTC launched from the Air Force Western Test Range (AFWTR). Debris objects in space refer to the collection of defunct objects orbiting the Earth. Examples of debris include non-operational satellites, rocket bodies, and fragments generated from explosions, collisions, or faulty payload assembly.

Loading next visibility...
Identifier
2367, 1963-014S
Orbit
Active
Country
Flag of USUS
Related business
Manufacturer
Unknown
Mission
Spacecraft
Bus & Motor
Unknown
Mass
Unknown
Launch date (UTC)
1963-05-09 (63 years ago)
Launch vehicle
Unknown
Launch site
Air Force Western Test Range (AFWTR)
Object type
Payload
Rocket body
Debris
Shape & HBR
Unknown shape, 0.2 m
Radar Cross Section
Medium (>0.1 m² and <1 m²)

Expand to show TLE details & history
Last TLE update: 16 hours ago

TLE from 16 hours ago
0 WESTFORD NEEDLES
1  2367U 63014S   26071.41392199  .00019625  00000-0  20372-1 0  9994
2  2367  84.3643  85.2753 2882972 226.5057 105.7435  9.01776034  3255
Epoch: 2026-03-12T09:56Z
TLE epoch observation values (Epoch: 2026-03-12T09:56:02.859Z)
Latitude
-0.00004°
Longitude
126.19923°
Altitude
4,781.336 km
Speed
5.529 km/s
True Right ascension
05h 41m 06s
True Declination
0° 00' 00"
Sunlit
Object was in daylight at epoch
Visualization orbit readout
Latitude
Unknown
Longitude
Unknown
Altitude
Unknown
Speed
Unknown
Apparent Right ascension
Unknown
Apparent Declination
Unknown
Sunlit
N/A
Visualization observer readout
Local Sidereal Time
06:06:35
Azimuth
Unknown
Elevation
Unknown
Doppler factor
Unknown
Orbital elements
Apogee altitude
6,179.496 km
Perigee altitude
559.162 km
Semi-major axis
9,747.466 km
Eccentricity
0.2883
Inclination
84.3643°
RAAN
85.2753°
Arg. of periapsis
226.5057°
True anomaly
133.58515°
Mean anomaly
105.7435°
Eccentric anomaly
120.04255°
Mean motion
2.25531 °/min
Orbital period
159.62 mins
BSTAR
0.020372

Documentation

Showing up to 5 results
|